Regional Weather Roundup
Issued by NWS Kansas City/Pleasant Hill, MO

Home | Current Version | Previous Version | Text Only | Print | Product List | Glossary On
Versions: 1 2 3 4 5 6 7 8 9 10 11 12 13 14 15 16 17 18 19 20 21 22 23 24 25 26 27 28 29 30 31 32 33 34 35 36 37 38 39 40 41 42 43 44 45 46 47 48 49 50
000
ASUS43 KEAX 200810
RWREAX

WEATHER ROUNDUP FOR EASTERN KANSAS AND NORTHWEST MISSOURI
NATIONAL WEATHER SERVICE KANSAS CITY/PLEASANT HILL MO
300 AM CDT FRI OCT 20 2017

KSZ040-057-103>105-MOZ028-029-037-043-200900-
...KANSAS CITY METROPOLITAN AREA...

CITY           SKY/WX    TMP DP  RH WIND       PRES   REMARKS
K.C. INTL      FAIR      60  52  74 SW16      30.08S
K.C. DOWNTOWN  FAIR      60  53  77 SW8       30.08S
LEES SUMMIT    FAIR      60  53  77 SW12      30.10S
OLATHE - IXD   FAIR      54  51  90 S7        30.09S
OLATHE - OJC   FAIR      57  52  83 S9        30.09S
LAWRENCE       FAIR      59  53  80 S9        30.07S

$$

MOZ001>008-011>017-020>025-030>033-038>040-044>046-053-054-200900-
...NORTHERN AND CENTRAL MISSOURI...

CITY           SKY/WX    TMP DP  RH WIND       PRES   REMARKS
ST. JOSEPH     FAIR      54  52  93 S6        30.06F
MOSBY          FAIR      55  52  88 S5        30.09S
WARRENSBURG    FAIR      52  48  87 S6        30.11S
WHITEMAN AFB   CLEAR     52  48  88 SW7       30.08R
CLINTON        FAIR      50  48  93 S3        30.13S
SEDALIA        FAIR      60  51  72 S12       30.13R
WARSAW         NOT AVBL
CHILLICOTHE      N/A     50  49  96 CALM      30.10S
KIRKSVILLE     FAIR      56  51  84 S7        30.11R

$$

MOZ041-047>049-056>058-063>065-088>090-097-200900-
...EASTERN AND SOUTHERN MISSOURI...

CITY           SKY/WX    TMP DP  RH WIND       PRES   REMARKS
ST. LOUIS INTL FAIR      58  50  75 S3        30.16S
SPIRIT OF STL  FOG       49  49 100 CALM      30.15S VSB 1/4
COLUMBIA       FAIR      56  49  77 S6        30.14R
JEFFERSON CITY FAIR      51  48  89 CALM      30.14R
ROLLA          FAIR      60  50  69 S14       30.16S
OSAGE BEACH    FAIR      54  49  83 S5        30.16R
SPRINGFIELD    FAIR      57  50  77 S9        30.15R
BRANSON        FAIR      55  50  82 CALM      30.18S
JOPLIN         FAIR      57  52  83 SE8       30.14S
WEST PLAINS    FAIR      52  48  86 S3        30.20S

$$

IAZ060-094-KSZ022-034>040-054-083-096-NEZ052-066-093-200900-
...KANSAS...SOUTHEAST NEBRASKA AND IOWA...

CITY           SKY/WX    TMP DP  RH WIND       PRES   REMARKS
TOPEKA         FAIR      62  55  77 S13       30.05S
MANHATTAN      FAIR      62  54  74 S8        30.02F
EMPORIA        FAIR      57  52  83 S12       30.06F
CHANUTE        FAIR      56  52  86 SE9       30.10F
WICHITA        FAIR      58  55  90 S9        30.04S
OMAHA          MOCLDY    57  50  77 S9        29.98F
LINCOLN        FAIR      59  49  69 S13       29.97F
FALLS CITY     FAIR      59  53  80 S8        30.03S
LAMONI         FAIR      56  51  84 MISG      30.07R
DES MOINES     FAIR      59  52  77 S8        30.03R

$$




USA.gov is the U.S. government's official web portal to all federal, state and local government web resources and services.